Flag for Australia Weather past 2 weeks in Adelaide, South Australia, Australia

Now
57 °F

Partly sunny.


Feels Like: 54 °F
Forecast: 48 / 57 °F
Wind: 13 mph from Southwest

Location: Adelaide Airport

Current Time: Sep 3, 2015 at 4:29:08 PM

Latest Report: Sep 3, 2015 at 3:30 PM


Visibility: N/A

Pressure: 30.18 "Hg

Humidity: 82%

Dew point: 52 °F

Location of AdelaideLocation

Historic Weather in Adelaide — Graph

°F

Adelaide temperature yesterday

Maximum temperature yesterday: 57 °F (at 11:30 AM)
Minimum temperature yesterday: 50 °F (at 11:30 PM)
Average temperature yesterday: 53 °F

Past Weeks' High & Low Weather Summary

 TemperatureHumidityPressure
High72 °F (Aug 20, 12:00 PM)100% (Aug 22, 1:30 AM)30.42 "Hg (Aug 22, 1:30 AM)
Low37 °F (Aug 31, 5:30 AM)28% (Aug 20, 1:17 AM)29.53 "Hg (Sep 2, 2:30 PM)
Average54 °F67%30.10 "Hg
* Reported Aug 19 2:30 PM — Sep 3 3:00 PM, Adelaide, Weather by CustomWeather, © 2015

Note: Actual official high and low records may vary slightly from our data, if they occured in-between our weather recording intervals... More about our weather records

Advertising

Adelaide weather history for previous 24 hours

 ConditionsComfort  
Time TempWeatherWind HumidityBarometerVisibility
3:00 PM
Thu, Sep 3
57 °FSprinkles. Broken clouds.15 mph82%30.18 "HgN/A
2:30 PM57 °FBroken clouds.16 mph82%30.15 "HgN/A
1:30 PM55 °FScattered showers. Broken clouds.21 mph88%30.15 "HgN/A
1:00 PM57 °FScattered showers. Broken clouds.16 mph82%30.15 "HgN/A
12:30 PM57 °FBroken clouds.15 mph82%30.15 "HgN/A
12:00 PM57 °FBroken clouds.10 mph82%30.15 "HgN/A
11:30 AM57 °FBroken clouds.14 mph77%30.15 "HgN/A
11:00 AM59 °FScattered showers. Broken clouds.14 mph82%30.15 "HgN/A
10:30 AM57 °FScattered showers. Broken clouds.16 mph82%30.15 "HgN/A
10:00 AM57 °FScattered showers. Partly sunny.15 mph88%30.12 "HgN/A
9:30 AM57 °FPartly sunny.13 mph77%30.12 "HgN/A
9:00 AM57 °FPartly sunny.13 mph77%30.09 "HgN/A
8:30 AM55 °FPartly sunny.12 mph82%30.09 "HgN/A
8:00 AM55 °FPartly sunny.10 mph82%30.07 "HgN/A
7:30 AM55 °FPartly sunny.7 mph82%30.04 "HgN/A
7:00 AM55 °FPartly sunny.8 mph82%30.04 "HgN/A
6:30 AM55 °FPartly sunny.12 mph88%30.01 "HgN/A
6:00 AM54 °FScattered showers. Partly cloudy.15 mph94%30.01 "HgN/A
5:30 AM54 °FScattered showers. Partly cloudy.14 mph94%29.98 "HgN/A
5:00 AM55 °FSprinkles. Passing clouds.9 mph88%29.95 "HgN/A
4:30 AM55 °FPartly cloudy.10 mph82%29.95 "HgN/A
4:00 AM54 °FPartly cloudy.12 mph88%29.92 "HgN/A
3:30 AM54 °FPartly cloudy.10 mph82%29.92 "HgN/A
3:00 AM54 °FPassing clouds.7 mph82%29.92 "HgN/A
2:30 AM52 °FPassing clouds.6 mph88%29.89 "HgN/A
2:00 AM54 °FPassing clouds.9 mph82%29.89 "HgN/A
1:30 AM54 °FPassing clouds.13 mph88%29.89 "HgN/A
1:00 AM54 °FPassing clouds.13 mph82%29.86 "HgN/A
12:30 AM54 °FPartly cloudy.14 mph82%29.86 "HgN/A
12:00 AM54 °FPassing clouds.12 mph82%29.86 "HgN/A
11:30 PM
Wed, Sep 2
50 °FPassing clouds.7 mph88%29.83 "HgN/A
11:00 PM52 °FPassing clouds.8 mph88%29.80 "HgN/A
10:30 PM52 °FPassing clouds.12 mph88%29.80 "HgN/A
10:00 PM52 °FScattered showers. Partly cloudy.12 mph82%29.80 "HgN/A
9:30 PM52 °FPartly cloudy.15 mph82%29.77 "HgN/A
9:00 PM52 °FPartly cloudy.12 mph88%29.74 "HgN/A
8:30 PM52 °FPartly cloudy.12 mph88%29.71 "HgN/A
8:00 PM52 °FPartly cloudy.9 mph88%29.68 "HgN/A
7:30 PM52 °FScattered showers. Passing clouds.10 mph88%29.65 "HgN/A
7:00 PM52 °FSprinkles. Partly cloudy.10 mph94%29.65 "HgN/A
6:30 PM52 °FScattered showers. Passing clouds.16 mph88%29.62 "HgN/A
6:00 PM54 °FPassing clouds.12 mph82%29.59 "HgN/A
5:30 PM54 °FPassing clouds.8 mph88%29.56 "HgN/A
5:00 PM54 °FBroken clouds.8 mph94%29.53 "HgN/A
4:30 PM54 °FLight rain. Broken clouds.9 mph88%29.53 "HgN/A
4:00 PM54 °FPartly sunny.12 mph88%29.53 "HgN/A
Weather by CustomWeather, © 2015

See weather overviewHow to use our weather pages